Location: Eppenbrunn
(49.1158°N, 7.5601°E)
Time: 09:00:47
(UTC+00:00)

Iridium 2 - Pass Details

Date: 09 April 2020
Orbit: 502 x 518 km, 85.5° (Epoch: 24 May)

Event Time Altitude Azimuth Distance (km) Brightness Sun altitude
Exits shadow 19:33:31 21° 133° (SE) 1,212 5.0 -13.0°
Maximum altitude 19:35:20 32° 87° (E) 917 4.5 -13.3°
Drops below altitude 10° 19:38:46 10° 24° (NNE) 1,761 6.5 -13.7°
Sets 19:41:03 0° 14° (NNE) 2,655 7.5 -14.1°
